Tracking 20719 objects as of 25-May-2020
HD Live streaming from Space Station
objects crossing your sky now

SL-8 DEB

Track SL-8 DEB now!
10-day predictions


NORAD ID: 29282
Int'l Code: 1981-120L
Perigee: 1,656.6 km
Apogee: 1,684.8 km
Inclination: 83.0 °
Period: 119.6 minutes
Semi major axis: 8041 km
RCS: 0.0115 m2 (small)
Launch date: December 17, 1981
Source: Commonwealth of Independent States (former USSR) (CIS)
Launch site: PLESETSK MISSILE AND SPACE COMPLEX (PKMTR)

Note: This is SATELLITE DEBRIS
aabbcc
Your satellite tracking list
Your tracking list is empty




NASA's NSSDC Master Catalog

Two Line Element Set (TLE):
1 29282U 81120L   20142.72410603  .00000038  00000-0  33729-3 0  9995
2 29282  82.9605 233.0645 0017550 295.6958 224.2230 12.03876118773751
Source of the keplerian elements: AFSPC